Location: Unnamed
(42.1164°N, 2.7652°E)
Time: 21:14:30
(UTC+02:00)

ISS - Pass Details

Date: 06 May 2021
Orbit: 417 x 422 km, 51.6° (Epoch: 14 June)

Event Time Altitude Azimuth Distance (km) Brightness Sun altitude
Rises 05:53:05 0° 301° (WNW) 2,375 -0.2 -8.3°
Reaches altitude 10° 05:55:45 10° 323° (NW) 1,511 -1.0 -7.8°
Maximum altitude 05:58:01 17° 5° (N) 1,172 -1.0 -7.5°
Drops below altitude 10° 06:00:16 10° 47° (NE) 1,505 0.6 -7.1°
Sets 06:02:57 0° 69° (ENE) 2,376 2.4 -6.7°
